Staverton, United Kingdom

8:49 AM BST on June 24, 2017 (GMT +0100)
Gloucestershire

Weather History for EGBJ - November, 2012

Change the Weather History Date:

Saturday, November 17, 2012

  Actual Average Record
Temperature  
Mean Temperature 46 °F -  
Max Temperature 51 °F 46 °F 60 °F (1997)
Min Temperature 42 °F 41 °F 28 °F (2005)
Degree Days  
Heating Degree Days 18    
Moisture  
Dew Point 43 °F    
Average Humidity 82    
Maximum Humidity 93    
Minimum Humidity 71    
Precipitation  
Precipitation 0.00 in - - ()
Sea Level Pressure  
Sea Level Pressure 29.77 in    
Wind  
Wind Speed 3 mph ()    
Max Wind Speed 6 mph    
Max Gust Speed -    
Visibility 6.2 miles    
Events      
Averages and records for this station are not official NWS values.
T = Trace of Precipitation, MM = Missing Value Source: Averaged Metar Reports

Daily Weather History Graph

Daily Weather History Graph

Search for Another Location

Airport or City:

Trip Planner

Search our weather history database for the weather conditions in past years. The results will help you decide how hot, cold, wet, or windy it might be!

Date:

Astronomy

Nov. 17, 2012 Rise Set
Actual Time 7:32 AM GMT 4:14 PM GMT
Civil Twilight 6:54 AM GMT 4:52 PM GMT
Nautical Twilight 6:13 AM GMT 5:33 PM GMT
Astronomical Twilight 5:33 AM GMT 6:13 PM GMT
Moon 11:07 AM GMT (11/17) 8:07 PM GMT (11/17)
Length of Visible Light 9h 57m
Length of Day
8h 42m
Waxing Crescent, 18% of the Moon is Illuminated
Nov 17
Waxing Crescent
Nov 20
First Quarter
Nov 28
Full
Dec 6
Last Quarter
Dec 13
New

Hourly Weather History & Observations

Time (GMT) Temp. Windchill Dew Point Humidity Pressure Visibility Wind Dir Wind Speed Gust Speed Precip Events Conditions
8:50 AM 48.2 °F - 44.6 °F 87% 29.74 in 6.2 mi WSW 2.3 mph - N/A   Scattered Clouds
9:20 AM 48.2 °F - 46.4 °F 93% 29.74 in 6.2 mi Calm Calm - N/A   Scattered Clouds
9:50 AM 48.2 °F - 46.4 °F 93% 29.74 in 6.2 mi WSW 3.5 mph - N/A   Scattered Clouds
10:20 AM 50.0 °F - 46.4 °F 87% 29.74 in 6.2 mi West 4.6 mph - N/A   Scattered Clouds
10:50 AM 50.0 °F - 46.4 °F 87% 29.77 in 6.2 mi West 5.8 mph - N/A   Scattered Clouds
11:20 AM 50.0 °F - 44.6 °F 82% 29.77 in 6.2 mi West 5.8 mph - N/A   Mostly Cloudy
11:50 AM 50.0 °F - 44.6 °F 82% 29.77 in 6.2 mi West 5.8 mph - N/A   Mostly Cloudy
12:20 PM 50.0 °F - 44.6 °F 82% 29.77 in 6.2 mi WNW 4.6 mph - N/A   Scattered Clouds
12:50 PM 50.0 °F - 44.6 °F 82% 29.77 in 6.2 mi WNW 4.6 mph - N/A   Scattered Clouds
1:20 PM 50.0 °F - 44.6 °F 82% 29.77 in 6.2 mi WNW 4.6 mph - N/A   Scattered Clouds
1:50 PM 51.8 °F - 42.8 °F 71% 29.77 in 6.2 mi WNW 4.6 mph - N/A   Scattered Clouds
2:20 PM 50.0 °F - 42.8 °F 76% 29.77 in 6.2 mi WNW 3.5 mph - N/A   Scattered Clouds
2:50 PM 50.0 °F - 42.8 °F 76% 29.77 in 6.2 mi WNW 3.5 mph - N/A   Scattered Clouds
3:20 PM 50.0 °F - 42.8 °F 76% 29.77 in 6.2 mi West 3.5 mph - N/A   Scattered Clouds
3:50 PM 48.2 °F - 42.8 °F 82% 29.77 in 6.2 mi West 4.6 mph - N/A   Scattered Clouds
4:20 PM 48.2 °F - 41.0 °F 76% 29.80 in 6.2 mi West 4.6 mph - N/A   Partly Cloudy
4:50 PM 46.4 °F 43.5 °F 41.0 °F 81% 29.80 in 6.2 mi West 5.8 mph - N/A   Partly Cloudy
5:20 PM 42.8 °F 40.1 °F 39.2 °F 87% 29.80 in 6.2 mi West 4.6 mph - N/A   Partly Cloudy
5:50 PM 42.8 °F 41.1 °F 37.4 °F 81% 29.80 in 6.2 mi West 3.5 mph - N/A   Partly Cloudy